Flag Weather past 2 weeks in Gloucester, Massachusetts, U.S.A.

Now
43 °F

Passing clouds.


Feels Like: 37 °F
Forecast: 40 / 51 °F
Wind: 10 mph from Southwest

Location: Beverly Municipal Airport

Current Time: Nov 23, 2014 at 6:18:07 AM

Latest Report: Nov 23, 2014 at 5:53 AM


Visibility: 10 mi

Pressure: 30.05 "Hg

Humidity: 53%

Dew point: 27 °F

Location of GloucesterLocation

Historic Weather in Gloucester — Graph

°F

Gloucester temperature yesterday

Maximum temperature yesterday: 43 °F (at 2:53 PM)
Minimum temperature yesterday: 21 °F (at 5:53 AM)
Average temperature yesterday: 34 °F

Past Weeks' High & Low Weather Summary

 TemperatureHumidityPressure
High59 °F (Nov 11, 12:53 PM)100% (Nov 11, 5:57 AM)30.40 "Hg (Nov 11, 5:57 AM)
Low21 °F (Nov 22, 5:53 AM)21% (Nov 22, 2:53 PM)29.42 "Hg (Nov 17, 8:53 PM)
Average38 °F61%30.00 "Hg
* Reported Nov 8 4:53 AM — Nov 23 4:53 AM, Gloucester, Weather by CustomWeather, © 2014

Note: Actual official high and low records may vary slightly from our data, if they occured in-between our weather recording intervals... More about our weather records

Advertising

Gloucester weather history for previous 24 hours

 ConditionsComfort  
Time TempWeatherWind HumidityBarometerVisibility
4:53 AM
Nov 23
43 °FPassing clouds.10 mph49%30.04 "Hg10 mi
3:53 AM43 °FPassing clouds.9 mph47%30.04 "Hg10 mi
2:53 AM43 °FOvercast.9 mph43%30.04 "Hg10 mi
1:53 AM42 °FPassing clouds.15 mph45%30.04 "Hg10 mi
12:53 AM41 °FClear.17 mph45%30.02 "Hg10 mi
11:53 PM
Nov 22
41 °FClear.9 mph43%30.03 "Hg10 mi
10:53 PM41 °FClear.13 mph39%30.03 "Hg10 mi
9:53 PM41 °FClear.14 mph38%30.03 "Hg10 mi
8:53 PM39 °FClear.10 mph39%30.05 "Hg10 mi
7:53 PM40 °FPassing clouds.14 mph35%30.06 "Hg10 mi
6:53 PM40 °FOvercast.17 mph33%30.07 "Hg10 mi
5:53 PM40 °FPassing clouds.16 mph32%30.08 "Hg10 mi
4:53 PM42 °FPassing clouds.13 mph22%30.11 "Hg10 mi
3:53 PM42 °FBroken clouds.13 mph21%30.10 "Hg10 mi
2:53 PM43 °FBroken clouds.13 mph21%30.14 "Hg10 mi
1:53 PM41 °FBroken clouds.8 mph26%30.15 "Hg10 mi
12:53 PM39 °FSunny.21 mph28%30.19 "Hg10 mi
11:53 AM35 °FSunny.13 mph34%30.23 "Hg10 mi
10:53 AM34 °FSunny.17 mph37%30.29 "Hg10 mi
9:53 AM33 °FSunny.13 mph38%30.32 "Hg10 mi
8:53 AM30 °FSunny.13 mph47%30.37 "Hg10 mi
7:53 AM26 °FSunny.9 mph55%30.39 "Hg10 mi
6:53 AM23 °FSunny.7 mph60%30.39 "Hg10 mi
Weather by CustomWeather, © 2014

See weather overviewHow to use our weather pages